N-SAT-110 (JCSAT-110)

Last updated on Tue Feb 05 2019 03:03:11 GMT+0000 (Coordinated Universal Time)

1 26559U 00060A 19034.85548334 -.00000110 00000-0 00000-0 0 9993 2 26559 0.0889 99.3305 0005343 261.8735 90.7525 0.99183543 67137
UTC large
Height (km)
Speed (km/s)
/
Latitude / Longitude
Inclination (degrees)
Orbital Period (minutes)
Azimuth
Elevation
Range (km)
Doppler Factor

Next 0 passes for location: London (51.5072 / 0.1276)

Sorry there are no passes over London.